Flag for Cuba Weather past 2 weeks in Santa Clara, Cuba

Now
66 °F

Mild.


Feels Like: 66 °F
Forecast: 61 / 78 °F
Wind: 3 mph from Northeast

Location: Cienfuegos - Las Villas

Current Time: Jan 26, 2015 at 5:31:50 AM

Latest Report: Jan 26, 2015 at 4:58 AM


Visibility: N/A

Pressure: 30.01 "Hg

Humidity: 88%

Dew point: 63 °F

Location of Santa ClaraLocation

Historic Weather in Santa Clara — Graph

°F

Santa Clara temperature yesterday

Maximum temperature yesterday: 75 °F (at 11:50 AM)
Minimum temperature yesterday: 66 °F (at 8:50 PM)
Average temperature yesterday: 70 °F

Past Weeks' High & Low Weather Summary

 TemperatureHumidityPressure
High90 °F (Jan 21, 2:50 PM)100% (Jan 11, 4:58 AM)30.18 "Hg (Jan 11, 4:58 AM)
Low61 °F (Jan 24, 6:58 AM)41% (Jan 21, 2:50 PM)29.95 "Hg (Jan 14, 3:50 PM)
Average74 °F80%30.05 "Hg
* Reported Jan 11 3:58 AM — Jan 26 3:58 AM, Santa Clara, Weather by CustomWeather, © 2014

Note: Actual official high and low records may vary slightly from our data, if they occured in-between our weather recording intervals... More about our weather records

Advertising

Santa Clara weather history for previous 24 hours

 ConditionsComfort  
Time TempWeatherWind HumidityBarometerVisibility
3:58 AM
Jan 26
66 °FMild.3 mph88%30.01 "HgN/A
2:58 AM66 °FMild.5 mph88%30.01 "HgN/A
1:58 AM66 °FMild.5 mph83%30.01 "HgN/A
12:58 AM68 °FMild.7 mph78%30.04 "HgN/A
11:58 PM
Jan 25
68 °FMild.7 mph78%30.04 "HgN/A
10:58 PM66 °FMild.7 mph83%30.04 "HgN/A
9:58 PM66 °FMild.7 mph83%30.04 "HgN/A
8:50 PM66 °FPassing clouds.7 mph83%30.01 "HgN/A
7:50 PM68 °FPassing clouds.6 mph83%30.01 "HgN/A
6:55 PM68 °FPassing clouds.6 mph83%30.01 "HgN/A
5:50 PM70 °FPartly sunny.8 mph78%29.98 "Hg6 mi
4:50 PM72 °FPartly sunny.9 mph73%29.98 "Hg6 mi
3:50 PM73 °FPartly sunny.9 mph74%29.98 "Hg6 mi
2:50 PM72 °FPartly sunny.10 mph78%29.98 "Hg6 mi
1:50 PM73 °FPartly sunny.13 mph74%30.01 "Hg6 mi
12:50 PM75 °FPartly sunny.9 mph69%30.04 "Hg6 mi
11:50 AM75 °FPartly sunny.9 mph69%30.07 "Hg6 mi
10:50 AM73 °FPartly sunny.13 mph74%30.07 "Hg6 mi
9:51 AM72 °FPartly sunny.10 mph78%30.07 "Hg6 mi
8:50 AM70 °FPartly sunny.8 mph83%30.07 "Hg5 mi
7:50 AM68 °FPartly sunny.9 mph88%30.04 "Hg4 mi
6:58 AM70 °FMild.9 mph83%30.04 "HgN/A
5:58 AM70 °FMild.7 mph88%30.01 "HgN/A
Weather by CustomWeather, © 2014

See weather overviewHow to use our weather pages